|
|
Comet of 1702
(Preview)
C/1702 H1 (also known as "the comet of 1702") is a comet discovered by Francesco Bianchini and Giacomo Filippo Maraldi (Rome, Italy) on April 20, 1702. Read more
|
Blobrana
|
1
|
|
|
|
|
Comet C/2014 G3 (PANSTARRS)
(Preview)
Comet C/2014 G3 (PANSTARRS) is at Perihelion (4.699 AU) on the 2nd February 2015. EphemerisDate TT R. A. (2000) Decl. Delta r Elong. Phase Mag
2015 02 01 15 12 25.3 -04 41 15 4.6849 4.6980 84.7 12.1 19.1
2015 02 02 15 12 01.2 -04 39 14 4.6657 4.6980 85.8 12.1 19.1
2015 02 03 15 11 36.1 -04 37 08 4.6466 4.6980...
|
Blobrana
|
2
|
|
|
|
|
Comet C/2015 F5 (SWAN-Xingming)
(Preview)
Comet C/2015 F5 (SWAN-Xingming) makes its closest approach to the Earth (0.598 AU) in the constellation Andromeda on the 14th April 2015 EphemerisDate UT R.A. (J2000) Decl. Delta r El. Ph. Mag
2015 04 13 000000 00 49 57.8 +36 22 20 0.603 0.554 28.6 119.9 11.8
2015 04 14 000000 01 06 59.3 +39 24 41 0.600...
|
Blobrana
|
0
|
|
|
|
|
Comet C/2014 W6 (Catalina)
(Preview)
Orbital elements:
C/2014 W6 (Catalina)
T 2015 Feb. 19.45389 TT MPCW
q 3.1821055 (2000.0) P Q
Peri. 202.51631 -0.94379601 +0.14674696
Node 338.13242 +0.23907443 -0.31565218
e 1.0 Incl. 52.67007 -0.22823783 -0.93745881
From 17 observations 2014 Nov. 20-22. MPEC 2014 - W69
|
Blobrana
|
3
|
|
|
|
|
Comet 75D/Kohoutek
(Preview)
Comet 75D/Kohoutek makes its closest approach to the Earth (1.693 AU) in the constellation Crater on the 1st March 2015. EphemerisDate UT R.A. (J2000) Decl. Delta r El. Ph. Mag
2015 02 28 000000 11 51 20.5 -09 01 50 1.692 2.625 155.6 9.0 16.9
2015 03 01 000000 11 50 32.0 -08 58 02 1.692 2.631 156.7 8.6 16....
|
Blobrana
|
1
|
|
|
|
|
Comet C/2015 D3 (PANSTARRS)
(Preview)
Comet C/2015 D3 (PANSTARRS) is at Opposition (7.568 AU) on the 12th March 2015Orbital elements:
C/2015 D3 (PANSTARRS)
T 2016 June 10.14161 TT MPCW
q 8.0356646 (2000.0) P Q
Peri. 5.62450 -0.89315544 +0.33013509
Node 157.10384 +0.37594824 +0.17529711
e 1.0 Incl. 128.27678 +0.24685275 +0....
|
Blobrana
|
1
|
|
|
|
|
Comet C/2015 D1 (SOHO)
(Preview)
Orbital elements:
C/2015 D1 (SOHO)
T 2015 Feb. 19.74715 TT MPCW
q 0.0281146 (2000.0) P Q
Peri. 234.73914 +0.33475549 +0.10759763
Node 96.05006 -0.19431686 +0.97998924
e 1.0 Incl. 70.28549 -0.92205191 -0.16746295
From 211 observations 2015 Feb. 19-21. Fit only to post-prehelion
obse...
|
Blobrana
|
0
|
|
|
|
|
Comet C/2013 PE67 (Catalina-Spacewatch)
(Preview)
Comet C/2013 PE67 (Catalina-Spacewatch) is at Opposition (4.094 AU) in the constellation Leo minor on the 22nd February 2015. EphemerisDate TT R. A. (2000) Decl. Delta r Elong. Phase Mag
2015 02 20 10 41 58.5 +24 39 07 4.0782 5.0386 164.7 3.0 24.1
2015 02 21 10 40 40.0 +24 41 06 4.0857 5.0470 164.9 2.9 2...
|
Blobrana
|
0
|
|
|
|
|
Comet P/2001 H5 (NEAT)
(Preview)
Comet P/2001 H5 (NEAT) is at Opposition (2.310 AU) on the 22nd January 2015 EphemerisDate TT R. A. (2000) Decl. Delta r Elong. Phase Mag
2015 01 20 08 22 40.9 +25 05 22 2.3209 3.3010 173.9 1.8 19.0
2015 01 21 08 21 53.2 +25 06 13 2.3153 3.2960 174.3 1.7 19.0
2015 01 22 08 21 05.3 +25 07 01 2.3100 3.2910 174.5 1...
|
Blobrana
|
1
|
|
|
|
|
Comet C/2014 W10 (PANSTARRS)
(Preview)
Comet C/2014 W10 (PANSTARRS) is at Perihelion (7.425 AU) on the 9th February 2015 EphemerisDate__(UT)__HR:MN R.A._(ICRF/J2000.0)_DEC Mag
2015-Feb-01 00:00 01 58 10.58 +30 58 23.6 21.16
2015-Feb-02 00:00 01 58 14.88 +30 59 56.9 21.16
2015-Feb-03 00:00 01 58 19.77 +31 01 33.0 21.17
2015-Feb-...
|
Blobrana
|
0
|
|
|
|
|
Comet P/2013 YG46 (Spacewatch)
(Preview)
Comet P/2013 YG46 (Spacewatch) is at Opposition (3.405 AU) on the 7th February 2015 EphemerisDate TT R. A. (2000) Decl. Delta r Elong. Phase Mag
2015 02 05 09 37 14.7 +24 51 03 3.4143 4.3874 169.5 2.3 19.1
2015 02 06 09 36 28.6 +24 54 57 3.4114 4.3852 169.8 2.3 19.1
2015 02 07 09 35 42.3 +24 58 47 3.4087 4.3...
|
Blobrana
|
0
|
|
|
|
|
Comet C/1880 C1
(Preview)
Goulds Comet Title: The comets of 1880 Journal:http://books.google.co.uk/books?id=DFgMAaU3vA8C&pg=PA202#v=onepage&q&f=false
|
Blobrana
|
0
|
|
|
|
|
Comet P/2007 R2 (Gibbs)
(Preview)
Comet P/2007 R2 (Gibbs) is at Opposition (2.506 AU) on the 29th January 2015. EphemerisDate TT R. A. (2000) Decl. Delta r Elong. Phase Mag
2015 01 28 08 44 01.8 +19 55 00 2.4961 3.4804 178.2 0.5 24.4
2015 01 29 08 43 05.3 +19 58 24 2.5012 3.4857 178.1 0.5 24.4
2015 01 30 08 42 09.1 +20 01 44 2.5067 3.4910 177....
|
Blobrana
|
0
|
|
|
|
|
Comet P/2014 V1 (PANSTARRS)
(Preview)
Comet P/2014 V1 (PANSTARRS) is at Perihelion (2.521 AU) on the 28th January 2015Orbital elements:
P/2014 V1 (PANSTARRS)
T 2014 Dec. 18.51043 TT MPCW
q 2.5933159 (2000.0) P Q
n 0.11617760 Peri. 168.00369 +0.90187180 +0.42134010
a 4.1596276 Node 165.87152 -0.42159670 +0.90659593
e 0.3765...
|
Blobrana
|
0
|
|
|
|
|
Comet C/2014 B1 (Schwartz)
(Preview)
Comet C/2014 B1 (Schwartz) makes its closest approach to the Earth (10.052 AU) on the 19th January 2015. EphemerisDate TT R. A. (2000) Decl. Delta r Elong. Phase Mag
2015 01 17 07 05 53.7 -02 55 51 10.0522 10.9414 153.5 2.3 19.4
2015 01 18 07 05 39.6 -02 54 23 10.0517 10.9388 153.2 2.3 19.4
2015 01 19 07 0...
|
Blobrana
|
0
|
|
|